User: anonymous
Location: Niverville
(49.6028°N, 97.0419°W)
Time: 07:18:18
(UTC-05:00)
Language:

Cosmos 1154 Rocket - Orbit

View from above orbital plane
View from above orbital plane
View from above satellite
View from above satellite

Ground track
Ground track

The orbit data is extracted from the following two-line orbital elements,

1 11683U 80008B   14110.45102706  .00090693  00000-0  71965-3 0  3157
2 11683 081.1716 103.9202 0009004 227.9371 132.1122 15.70909373883225
Epoch (UTC): 20 April 2014 10:49:28
Eccentricity: 0.0009004
inclination: 81.1716°
perigee height: 350 km
apogee height: 362 km
right ascension of ascending node: 103.9202°
argument of perigee: 227.9371°
revolutions per day: 15.70909373
mean anomaly at epoch: 132.1122°
orbit number at epoch: 88322

The dashed part of the orbit path shows where the satellite is in the earth's shadow,  

DLR